�������l�o���
Date,Time,MP-1(��Sv/h),MP-2(��Sv/h),MP-3(��Sv/h),MP-4(��Sv/h),MP-5(��Sv/h),MP-6(��Sv/h),MP-7(��Sv/h),MP-8(��Sv/h),����,����(m/s),���J
2023/03/21,00:00,0.559,0.813,0.494,1.015,0.712,0.321,0.576,0.548,��쐼,4.7,��
2023/03/21,00:10,0.558,0.815,0.493,1.018,0.714,0.320,0.577,0.546,��쐼,5.0,��
2023/03/21,00:20,0.558,0.815,0.494,1.016,0.716,0.322,0.576,0.547,��쐼,4.5,��
2023/03/21,00:30,0.559,0.814,0.494,1.017,0.714,0.321,0.578,0.547,��쐼,4.1,��
2023/03/21,00:40,0.560,0.814,0.495,1.017,0.713,0.320,0.577,0.548,��쐼,4.0,��
2023/03/21,00:50,0.562,0.815,0.493,1.016,0.714,0.321,0.575,0.548,��쐼,4.7,��
2023/03/21,01:00,0.560,0.816,0.495,1.019,0.714,0.321,0.576,0.549,��,4.9,��
2023/03/21,01:10,0.560,0.814,0.494,1.018,0.715,0.320,0.577,0.547,��쐼,4.8,��
2023/03/21,01:20,0.560,0.814,0.492,1.015,0.712,0.321,0.578,0.548,��쐼,5.0,��
2023/03/21,01:30,0.559,0.814,0.492,1.018,0.712,0.321,0.576,0.547,��,5.9,��
2023/03/21,01:40,0.559,0.814,0.494,1.017,0.716,0.320,0.577,0.548,��,5.7,��
2023/03/21,01:50,0.560,0.816,0.493,1.016,0.714,0.321,0.575,0.547,��,5.6,��
2023/03/21,02:00,0.560,0.817,0.494,1.017,0.713,0.320,0.577,0.548,��쐼,5.3,��
2023/03/21,02:10,0.559,0.814,0.493,1.019,0.714,0.320,0.576,0.547,��쐼,5.5,��
2023/03/21,02:20,0.559,0.815,0.494,1.017,0.713,0.321,0.575,0.548,��쐼,4.9,��
2023/03/21,02:30,0.560,0.814,0.495,1.017,0.716,0.321,0.576,0.548,��쐼,5.5,��
2023/03/21,02:40,0.560,0.813,0.494,1.016,0.713,0.321,0.577,0.547,��쐼,5.9,��
2023/03/21,02:50,0.559,0.815,0.493,1.019,0.714,0.321,0.576,0.547,��,5.9,��
2023/03/21,03:00,0.559,0.816,0.494,1.019,0.713,0.321,0.576,0.548,��,4.7,��
2023/03/21,03:10,0.557,0.814,0.493,1.019,0.713,0.319,0.576,0.547,��,3.4,��
2023/03/21,03:20,0.558,0.814,0.494,1.019,0.714,0.320,0.576,0.546,��,2.2,��
2023/03/21,03:30,0.559,0.811,0.492,1.016,0.715,0.321,0.576,0.548,��쓌,1.4,��
2023/03/21,03:40,0.560,0.813,0.494,1.019,0.715,0.322,0.576,0.547,�쓌,0.9,��
2023/03/21,03:50,0.559,0.814,0.492,1.017,0.714,0.322,0.576,0.547,��쓌,0.9,��
2023/03/21,04:00,0.559,0.811,0.494,1.016,0.713,0.320,0.575,0.547,�쓌,0.9,��
2023/03/21,04:10,0.559,0.814,0.496,1.016,0.713,0.321,0.577,0.548,�쓌,1.1,��
2023/03/21,04:20,0.560,0.815,0.494,1.018,0.713,0.321,0.576,0.547,��쓌,1.4,��
2023/03/21,04:30,0.559,0.813,0.494,1.015,0.714,0.321,0.576,0.547,-,CALM,��
2023/03/21,04:40,0.559,0.816,0.494,1.018,0.715,0.322,0.576,0.549,��,0.9,��
2023/03/21,04:50,0.559,0.814,0.494,1.017,0.715,0.321,0.577,0.547,��,1.2,��
2023/03/21,05:00,0.561,0.814,0.494,1.015,0.713,0.321,0.578,0.548,��,0.6,��
2023/03/21,05:10,0.560,0.815,0.493,1.020,0.714,0.321,0.574,0.547,��쓌,0.6,��
2023/03/21,05:20,0.558,0.813,0.495,1.015,0.716,0.321,0.576,0.548,��,0.6,��
2023/03/21,05:30,0.560,0.816,0.495,1.017,0.716,0.320,0.575,0.549,���k��,0.9,��
2023/03/21,05:40,0.560,0.814,0.496,1.019,0.715,0.321,0.576,0.548,��쓌,1.5,��
2023/03/21,05:50,0.559,0.814,0.495,1.019,0.715,0.321,0.575,0.548,��쓌,2.8,��
2023/03/21,06:00,0.561,0.814,0.495,1.020,0.715,0.321,0.575,0.546,��쓌,1.7,��
2023/03/21,06:10,0.560,0.813,0.494,1.018,0.713,0.321,0.576,0.546,��쓌,1.2,��
2023/03/21,06:20,0.561,0.814,0.495,1.019,0.714,0.321,0.577,0.549,��쓌,1.4,��
2023/03/21,06:30,0.560,0.815,0.494,1.018,0.715,0.321,0.576,0.550,-,CALM,��
2023/03/21,06:40,0.559,0.816,0.493,1.016,0.712,0.320,0.575,0.549,�쐼,0.9,��
2023/03/21,06:50,0.560,0.815,0.494,1.016,0.716,0.321,0.576,0.548,�쐼,0.9,��
2023/03/21,07:00,0.562,0.814,0.495,1.019,0.714,0.320,0.576,0.547,��쓌,0.9,��
2023/03/21,07:10,0.559,0.816,0.493,1.018,0.715,0.322,0.577,0.548,��쓌,2.2,��
2023/03/21,07:20,0.558,0.814,0.494,1.017,0.714,0.321,0.578,0.549,��,2.9,��
2023/03/21,07:30,0.561,0.814,0.494,1.018,0.714,0.322,0.578,0.547,��쓌,1.2,��
2023/03/21,07:40,0.562,0.816,0.494,1.017,0.714,0.322,0.578,0.547,��,1.7,��
2023/03/21,07:50,0.562,0.815,0.496,1.019,0.714,0.322,0.577,0.548,��,2.9,��
2023/03/21,08:00,0.560,0.814,0.496,1.018,0.716,0.321,0.576,0.550,��쓌,0.9,��
2023/03/21,08:10,0.560,0.814,0.496,1.021,0.716,0.320,0.578,0.548,�쓌,1.5,��
2023/03/21,08:20,0.562,0.815,0.495,1.020,0.715,0.318,0.576,0.549,�쓌,2.9,��
2023/03/21,08:30,0.560,0.812,0.493,1.021,0.713,0.318,0.577,0.549,�쓌,2.3,��
2023/03/21,08:40,0.563,0.813,0.494,1.020,0.715,0.320,0.575,0.548,��쓌,2.3,��
2023/03/21,08:50,0.559,0.814,0.495,1.018,0.716,0.319,0.575,0.549,�쓌,2.6,��
2023/03/21,09:00,0.562,0.813,0.495,1.019,0.715,0.318,0.576,0.549,�쓌,3.1,��
2023/03/21,09:10,0.560,0.813,0.495,1.018,0.714,0.320,0.576,0.548,���쓌,3.5,��
2023/03/21,09:20,0.558,0.814,0.495,1.018,0.714,0.320,0.575,0.549,���쓌,3.6,��
2023/03/21,09:30,0.561,0.815,0.494,1.019,0.716,0.319,0.576,0.548,�쓌,3.7,��
2023/03/21,09:40,0.559,0.814,0.495,1.019,0.716,0.320,0.575,0.547,�쓌,4.3,��
2023/03/21,09:50,0.559,0.814,0.495,1.019,0.715,0.320,0.576,0.546,���쓌,3.4,��
2023/03/21,10:00,0.560,0.815,0.495,1.019,0.715,0.320,0.576,0.546,�쓌,3.7,��
2023/03/21,10:10,0.561,0.815,0.494,1.019,0.713,0.321,0.577,0.546,�쓌,4.6,��
2023/03/21,10:20,0.558,0.815,0.495,1.019,0.716,0.321,0.576,0.547,��쓌,9.0,��
2023/03/21,10:30,0.560,0.816,0.493,1.019,0.715,0.320,0.578,0.547,��쓌,9.3,��
2023/03/21,10:40,0.561,0.814,0.495,1.021,0.715,0.320,0.576,0.546,��쓌,9.4,��
2023/03/21,10:50,0.560,0.813,0.494,1.021,0.714,0.320,0.579,0.547,��쓌,12.2,��
2023/03/21,11:00,0.561,0.817,0.493,1.020,0.716,0.320,0.577,0.546,��,9.5,��
2023/03/21,11:10,0.561,0.815,0.494,1.019,0.715,0.321,0.576,0.547,��쓌,10.8,��
2023/03/21,11:20,0.559,0.816,0.494,1.021,0.716,0.322,0.577,0.547,��쓌,12.7,��
2023/03/21,11:30,0.561,0.817,0.493,1.020,0.715,0.321,0.578,0.549,��쓌,11.6,��
2023/03/21,11:40,0.561,0.817,0.495,1.018,0.716,0.320,0.576,0.548,��쓌,12.4,��
2023/03/21,11:50,0.560,0.817,0.493,1.019,0.716,0.320,0.577,0.547,��쓌,11.4,��
2023/03/21,12:00,0.561,0.817,0.494,1.021,0.716,0.320,0.579,0.547,��,10.2,�L
2023/03/21,12:10,0.562,0.817,0.495,1.020,0.715,0.320,0.577,0.548,��쓌,12.5,��
2023/03/21,12:20,0.562,0.817,0.493,1.020,0.716,0.321,0.576,0.547,��,9.6,��
2023/03/21,12:30,0.562,0.816,0.494,1.018,0.715,0.320,0.579,0.548,��쓌,10.7,��
2023/03/21,12:40,0.562,0.817,0.495,1.020,0.715,0.320,0.577,0.548,��쓌,11.9,��
2023/03/21,12:50,0.561,0.817,0.494,1.019,0.717,0.320,0.577,0.548,��쓌,10.9,��
2023/03/21,13:00,0.561,0.815,0.493,1.021,0.718,0.322,0.579,0.548,��쓌,12.4,��
2023/03/21,13:10,0.561,0.818,0.495,1.023,0.717,0.320,0.579,0.547,��쓌,10.7,��
2023/03/21,13:20,0.562,0.817,0.495,1.020,0.715,0.321,0.579,0.547,��쓌,9.5,�L
2023/03/21,13:30,0.562,0.817,0.496,1.023,0.718,0.320,0.578,0.549,��,10.2,��
2023/03/21,13:40,0.563,0.818,0.495,1.023,0.717,0.321,0.578,0.548,��쓌,11.3,��
2023/03/21,13:50,0.561,0.819,0.494,1.022,0.718,0.321,0.577,0.547,��쓌,12.0,��
2023/03/21,14:00,0.563,0.818,0.495,1.022,0.715,0.321,0.577,0.548,��쓌,12.2,��
2023/03/21,14:10,0.563,0.818,0.495,1.023,0.717,0.322,0.578,0.548,��쓌,11.7,��
2023/03/21,14:20,0.560,0.819,0.495,1.023,0.717,0.321,0.577,0.548,��,11.3,��
2023/03/21,14:30,0.563,0.819,0.494,1.025,0.718,0.321,0.578,0.548,��,12.7,��
2023/03/21,14:40,0.562,0.817,0.495,1.024,0.719,0.321,0.579,0.548,��쓌,11.4,��
2023/03/21,14:50,0.562,0.818,0.495,1.021,0.719,0.323,0.579,0.547,��쓌,9.8,��
2023/03/21,15:00,0.563,0.818,0.494,1.022,0.720,0.321,0.578,0.548,��쓌,10.0,��
2023/03/21,15:10,0.562,0.820,0.495,1.021,0.719,0.321,0.577,0.549,��쓌,12.5,��
2023/03/21,15:20,0.562,0.817,0.494,1.021,0.718,0.321,0.577,0.548,��쓌,13.0,��
2023/03/21,15:30,0.563,0.820,0.495,1.023,0.719,0.321,0.579,0.547,��,10.9,��
2023/03/21,15:40,0.562,0.820,0.495,1.024,0.719,0.321,0.579,0.548,��쓌,9.6,��
2023/03/21,15:50,0.561,0.820,0.495,1.023,0.719,0.321,0.578,0.549,��,12.4,��
2023/03/21,16:00,0.562,0.818,0.494,1.021,0.720,0.322,0.578,0.547,��,11.3,��
2023/03/21,16:10,0.563,0.819,0.494,1.024,0.718,0.321,0.577,0.548,��쓌,10.2,��
2023/03/21,16:20,0.561,0.818,0.494,1.022,0.719,0.320,0.576,0.548,��,10.5,��
2023/03/21,16:30,0.562,0.816,0.495,1.024,0.717,0.321,0.576,0.546,��,9.6,��
2023/03/21,16:40,0.561,0.816,0.494,1.022,0.718,0.320,0.577,0.547,��,11.6,��
2023/03/21,16:50,0.562,0.817,0.493,1.022,0.717,0.321,0.577,0.547,��,9.5,��
2023/03/21,17:00,0.562,0.817,0.494,1.023,0.718,0.322,0.577,0.547,��,9.4,��
2023/03/21,17:10,0.561,0.818,0.495,1.021,0.718,0.321,0.577,0.548,��,8.5,��
2023/03/21,17:20,0.562,0.819,0.496,1.023,0.718,0.321,0.577,0.547,��쓌,7.7,��
2023/03/21,17:30,0.562,0.820,0.498,1.023,0.718,0.321,0.577,0.548,��,7.8,��
2023/03/21,17:40,0.563,0.818,0.496,1.023,0.720,0.323,0.579,0.550,��,6.7,��
2023/03/21,17:50,0.563,0.820,0.498,1.022,0.720,0.324,0.578,0.550,��,6.7,��
2023/03/21,18:00,0.564,0.821,0.498,1.021,0.719,0.321,0.579,0.550,��,6.9,��
2023/03/21,18:10,0.564,0.820,0.498,1.021,0.720,0.322,0.578,0.549,��,6.3,��
2023/03/21,18:20,0.564,0.821,0.498,1.022,0.719,0.322,0.579,0.551,��,6.6,��
2023/03/21,18:30,0.563,0.821,0.498,1.021,0.719,0.321,0.579,0.550,��,6.7,��
2023/03/21,18:40,0.565,0.821,0.496,1.021,0.719,0.323,0.580,0.550,��,6.6,��
2023/03/21,18:50,0.564,0.820,0.497,1.023,0.721,0.321,0.580,0.549,��,6.9,��
2023/03/21,19:00,0.565,0.819,0.497,1.022,0.719,0.322,0.579,0.549,��,7.4,��
2023/03/21,19:10,0.563,0.821,0.496,1.022,0.720,0.323,0.580,0.549,��,7.8,��
2023/03/21,19:20,0.562,0.821,0.498,1.024,0.720,0.321,0.579,0.550,��,7.1,��
2023/03/21,19:30,0.564,0.822,0.494,1.022,0.720,0.322,0.579,0.551,��,6.3,��
2023/03/21,19:40,0.563,0.821,0.497,1.021,0.720,0.324,0.580,0.549,��,6.3,��
2023/03/21,19:50,0.563,0.820,0.496,1.023,0.719,0.324,0.580,0.550,��,6.5,��
2023/03/21,20:00,0.563,0.821,0.496,1.022,0.719,0.323,0.579,0.549,��,5.8,��
2023/03/21,20:10,0.563,0.820,0.496,1.022,0.721,0.322,0.578,0.550,��,3.6,��
2023/03/21,20:20,0.565,0.821,0.496,1.020,0.721,0.322,0.578,0.550,��,3.8,��
2023/03/21,20:30,0.563,0.822,0.497,1.022,0.721,0.322,0.578,0.549,��,3.7,��
2023/03/21,20:40,0.564,0.820,0.496,1.021,0.720,0.322,0.579,0.549,��,4.0,��
2023/03/21,20:50,0.564,0.822,0.496,1.021,0.720,0.323,0.580,0.548,��,3.9,��
2023/03/21,21:00,0.563,0.820,0.497,1.024,0.719,0.323,0.580,0.548,��쐼,3.5,��
2023/03/21,21:10,0.563,0.821,0.496,1.022,0.721,0.322,0.578,0.549,��쐼,2.5,��
2023/03/21,21:20,0.562,0.819,0.497,1.023,0.721,0.323,0.579,0.550,��쐼,1.1,��
2023/03/21,21:30,0.563,0.819,0.497,1.021,0.721,0.321,0.578,0.550,��쓌,0.9,��
2023/03/21,21:40,0.562,0.819,0.495,1.022,0.719,0.323,0.578,0.549,��,1.2,��
2023/03/21,21:50,0.562,0.819,0.494,1.022,0.720,0.323,0.577,0.549,��쐼,1.9,��
2023/03/21,22:00,0.563,0.821,0.498,1.023,0.720,0.322,0.579,0.550,���쐼,1.5,��
2023/03/21,22:10,0.562,0.821,0.496,1.024,0.720,0.323,0.577,0.550,���쐼,2.2,��
2023/03/21,22:20,0.563,0.822,0.496,1.022,0.720,0.323,0.578,0.547,���쐼,1.9,��
2023/03/21,22:30,0.563,0.820,0.497,1.023,0.719,0.322,0.578,0.549,���k��,2.3,��
2023/03/21,22:40,0.562,0.820,0.497,1.021,0.720,0.323,0.577,0.549,��,2.2,��
2023/03/21,22:50,0.564,0.820,0.497,1.023,0.721,0.322,0.578,0.550,���k��,2.6,��
2023/03/21,23:00,0.563,0.819,0.498,1.022,0.721,0.323,0.578,0.550,�k��,2.8,��
2023/03/21,23:10,0.564,0.821,0.496,1.022,0.719,0.323,0.579,0.548,�k��,2.0,��
2023/03/21,23:20,0.563,0.819,0.496,1.022,0.721,0.323,0.577,0.550,�k��,2.5,��
2023/03/21,23:30,0.563,0.820,0.497,1.022,0.719,0.322,0.579,0.549,�k��,3.1,��
2023/03/21,23:40,0.562,0.820,0.496,1.024,0.720,0.322,0.578,0.548,�k��,3.4,��
2023/03/21,23:50,0.561,0.819,0.495,1.022,0.719,0.322,0.578,0.551,�k��,3.0,��
